This is the latest recevied weather packets stored in our database for station/object DL6DJ-15. If no packets are shown the sender has not sent any weather packets the latest 10 day(s).
| Time | Temp. | Humidity | Pressure | Rain* | Wind** | Luminosity | Snow |
|---|---|---|---|---|---|---|---|
| 1787897415 | 22.78° C | 63% | 1014.2 hPa | - | - | - | - |
| 1787897114 | 22.22° C | 64% | 1014 hPa | - | - | - | - |
| 1787896814 | 22.78° C | 62% | 1014.3 hPa | - | - | - | - |
| 1787896513 | 22.78° C | 63% | 1014.2 hPa | - | - | - | - |
| 1787896213 | 23.33° C | 62% | 1014.2 hPa | - | - | - | - |
| 1787895913 | 23.33° C | 61% | 1014.1 hPa | - | - | - | - |
| 1787895612 | 23.89° C | 59% | 1014 hPa | - | - | - | - |
| 1787895312 | 23.33° C | 62% | 1013.8 hPa | - | - | - | - |
| 1787895011 | 22.22° C | 64% | 1013.7 hPa | - | - | - | - |
| 1787894711 | 21.67° C | 66% | 1013.7 hPa | - | - | - | - |
| 1787894413 | 21.11° C | 66% | 1013.6 hPa | - | - | - | - |
| 1787894110 | 21.11° C | 68% | 1013.6 hPa | - | - | - | - |
| 1787893810 | 20.56° C | 69% | 1013.5 hPa | - | - | - | - |
| 1787893510 | 20.56° C | 69% | 1013.3 hPa | - | - | - | - |
| 1787893209 | 20.56° C | 69% | 1013.1 hPa | - | - | - | - |
| 1787892908 | 20° C | 70% | 1013.1 hPa | - | - | - | - |
| 1787892609 | 20° C | 71% | 1013 hPa | - | - | - | - |
| 1787892308 | 20° C | 71% | 1013.2 hPa | - | - | - | - |
| 1787892007 | 20° C | 72% | 1013.2 hPa | - | - | - | - |
| 1787891707 | 20° C | 72% | 1013.1 hPa | - | - | - | - |
| 1787891407 | 20° C | 71% | 1012.9 hPa | - | - | - | - |
| 1787891106 | 20° C | 71% | 1013 hPa | - | - | - | - |
| 1787890806 | 20° C | 71% | 1013.2 hPa | - | - | - | - |
| 1787890505 | 20° C | 69% | 1013.3 hPa | - | - | - | - |
| 1787890209 | 20° C | 70% | 1013.2 hPa | - | - | - | - |
* Rain since midnight (hover to see other rain measurements)
** Current wind speed in m/s (hover to see current wind gust speed)